owner,sensor,date,latitude,longitude,vertical_datum,mass_concentration_of_oxygen_in_sea_water,qcFlag 
DISL,ioos:station:DISL:MHPA:1,2017-07-01T00:00:00Z,30.6671,-87.9365,1.363,5.96,1111122 
DISL,ioos:station:DISL:MHPA:1,2017-07-01T00:30:00Z,30.6671,-87.9365,1.354,5.67,1111122 
DISL,ioos:station:DISL:MHPA:1,2017-07-01T01:00:00Z,30.6671,-87.9365,1.338,5.4,1111122 
DISL,ioos:station:DISL:MHPA:1,2017-07-01T01:30:00Z,30.6671,-87.9365,1.326,4.91,1111122 
DISL,ioos:station:DISL:MHPA:1,2017-07-01T02:00:00Z,30.6671,-87.9365,1.314,4.74,1111122 
DISL,ioos:station:DISL:MHPA:1,2017-07-01T02:30:00Z,30.6671,-87.9365,1.307,4.9,1111122 
DISL,ioos:station:DISL:MHPA:1,2017-07-01T03:00:00Z,30.6671,-87.9365,1.297,4.93,1111122 
DISL,ioos:station:DISL:MHPA:1,2017-07-01T03:30:00Z,30.6671,-87.9365,1.286,4.87,1111122 
DISL,ioos:station:DISL:MHPA:1,2017-07-01T04:00:00Z,30.6671,-87.9365,1.28,5.36,1111122 
DISL,ioos:station:DISL:MHPA:1,2017-07-01T04:30:00Z,30.6671,-87.9365,1.281,5.38,1111122 
DISL,ioos:station:DISL:MHPA:1,2017-07-01T05:00:00Z,30.6671,-87.9365,1.287,5.32,1111122 
DISL,ioos:station:DISL:MHPA:1,2017-07-01T05:30:00Z,30.6671,-87.9365,1.285,5.1,1111122 
DISL,ioos:station:DISL:MHPA:1,2017-07-01T06:00:00Z,30.6671,-87.9365,1.283,5.11,1111122 
DISL,ioos:station:DISL:MHPA:1,2017-07-01T06:30:00Z,30.6671,-87.9365,1.28,4.58,1111122 
DISL,ioos:station:DISL:MHPA:1,2017-07-01T07:00:00Z,30.6671,-87.9365,1.283,4.5,1111122 
DISL,ioos:station:DISL:MHPA:1,2017-07-01T07:30:00Z,30.6671,-87.9365,1.291,4.5,1111122 
DISL,ioos:station:DISL:MHPA:1,2017-07-01T08:00:00Z,30.6671,-87.9365,1.299,4.36,1111122 
DISL,ioos:station:DISL:MHPA:1,2017-07-01T08:30:00Z,30.6671,-87.9365,1.316,4.11,1111122 
DISL,ioos:station:DISL:MHPA:1,2017-07-01T09:00:00Z,30.6671,-87.9365,1.338,4.2,1111122 
DISL,ioos:station:DISL:MHPA:1,2017-07-01T09:30:00Z,30.6671,-87.9365,1.356,4.02,1111122 
DISL,ioos:station:DISL:MHPA:1,2017-07-01T10:00:00Z,30.6671,-87.9365,1.381,4.23,1111122 
DISL,ioos:station:DISL:MHPA:1,2017-07-01T10:30:00Z,30.6671,-87.9365,1.389,4.06,1111122 
DISL,ioos:station:DISL:MHPA:1,2017-07-01T11:00:00Z,30.6671,-87.9365,1.411,4.0,1111122 
DISL,ioos:station:DISL:MHPA:1,2017-07-01T11:30:00Z,30.6671,-87.9365,1.409,4.18,1111122 
DISL,ioos:station:DISL:MHPA:1,2017-07-01T12:00:00Z,30.6671,-87.9365,1.398,4.22,1111122 
DISL,ioos:station:DISL:MHPA:1,2017-07-01T12:30:00Z,30.6671,-87.9365,1.385,4.23,1111122 
DISL,ioos:station:DISL:MHPA:1,2017-07-01T13:00:00Z,30.6671,-87.9365,1.373,4.2,1111122 
DISL,ioos:station:DISL:MHPA:1,2017-07-01T13:30:00Z,30.6671,-87.9365,1.366,3.81,1111122 
DISL,ioos:station:DISL:MHPA:1,2017-07-01T14:00:00Z,30.6671,-87.9365,1.351,3.89,1111122 
DISL,ioos:station:DISL:MHPA:1,2017-07-01T14:30:00Z,30.6671,-87.9365,1.341,3.58,1111122 
DISL,ioos:station:DISL:MHPA:1,2017-07-01T15:00:00Z,30.6671,-87.9365,1.357,3.83,1111122 
DISL,ioos:station:DISL:MHPA:1,2017-07-01T15:30:00Z,30.6671,-87.9365,1.357,4.17,1111122 
DISL,ioos:station:DISL:MHPA:1,2017-07-01T16:00:00Z,30.6671,-87.9365,1.321,4.24,1111122 
DISL,ioos:station:DISL:MHPA:1,2017-07-01T16:30:00Z,30.6671,-87.9365,1.344,4.28,1111122 
DISL,ioos:station:DISL:MHPA:1,2017-07-01T17:00:00Z,30.6671,-87.9365,1.315,4.15,1111122 
DISL,ioos:station:DISL:MHPA:1,2017-07-01T17:30:00Z,30.6671,-87.9365,1.297,4.32,1111122 
DISL,ioos:station:DISL:MHPA:1,2017-07-01T18:00:00Z,30.6671,-87.9365,1.284,4.22,1111122 
DISL,ioos:station:DISL:MHPA:1,2017-07-01T18:30:00Z,30.6671,-87.9365,1.293,4.62,1111122 
DISL,ioos:station:DISL:MHPA:1,2017-07-01T19:00:00Z,30.6671,-87.9365,1.315,4.46,1111122 
DISL,ioos:station:DISL:MHPA:1,2017-07-01T19:30:00Z,30.6671,-87.9365,1.306,4.85,1111122 
DISL,ioos:station:DISL:MHPA:1,2017-07-01T20:00:00Z,30.6671,-87.9365,1.295,4.85,1111122 
DISL,ioos:station:DISL:MHPA:1,2017-07-01T20:30:00Z,30.6671,-87.9365,1.281,4.67,1111122 
DISL,ioos:station:DISL:MHPA:1,2017-07-01T21:00:00Z,30.6671,-87.9365,1.268,4.8,1111122 
DISL,ioos:station:DISL:MHPA:1,2017-07-01T21:30:00Z,30.6671,-87.9365,1.269,5.1,1111122 
DISL,ioos:station:DISL:MHPA:1,2017-07-01T22:00:00Z,30.6671,-87.9365,1.279,4.94,1111122 
DISL,ioos:station:DISL:MHPA:1,2017-07-01T22:30:00Z,30.6671,-87.9365,1.292,5.25,1111122 
DISL,ioos:station:DISL:MHPA:1,2017-07-01T23:00:00Z,30.6671,-87.9365,1.303,5.52,1111122 
DISL,ioos:station:DISL:MHPA:1,2017-07-01T23:30:00Z,30.6671,-87.9365,1.298,5.52,1111122 
DISL,ioos:station:DISL:MHPA:1,2017-07-02T00:00:00Z,30.6671,-87.9365,1.293,5.32,1111122 
DISL,ioos:station:DISL:MHPA:1,2017-07-02T00:30:00Z,30.6671,-87.9365,1.293,5.98,1111122 
DISL,ioos:station:DISL:MHPA:1,2017-07-02T01:00:00Z,30.6671,-87.9365,1.281,5.91,1111122 
DISL,ioos:station:DISL:MHPA:1,2017-07-02T01:30:00Z,30.6671,-87.9365,1.265,5.67,1111122 
DISL,ioos:station:DISL:MHPA:1,2017-07-02T02:00:00Z,30.6671,-87.9365,1.256,4.95,1111122 
DISL,ioos:station:DISL:MHPA:1,2017-07-02T02:30:00Z,30.6671,-87.9365,1.244,4.67,1111122 
DISL,ioos:station:DISL:MHPA:1,2017-07-02T03:00:00Z,30.6671,-87.9365,1.236,4.6,1111122 
DISL,ioos:station:DISL:MHPA:1,2017-07-02T03:30:00Z,30.6671,-87.9365,1.237,4.33,1111122 
DISL,ioos:station:DISL:MHPA:1,2017-07-02T04:00:00Z,30.6671,-87.9365,1.239,4.66,1111122 
DISL,ioos:station:DISL:MHPA:1,2017-07-02T04:30:00Z,30.6671,-87.9365,1.238,4.57,1111122 
DISL,ioos:station:DISL:MHPA:1,2017-07-02T05:00:00Z,30.6671,-87.9365,1.252,4.54,1111122 
DISL,ioos:station:DISL:MHPA:1,2017-07-02T05:30:00Z,30.6671,-87.9365,1.243,4.87,1111122 
DISL,ioos:station:DISL:MHPA:1,2017-07-02T06:00:00Z,30.6671,-87.9365,1.228,4.22,1111122 
DISL,ioos:station:DISL:MHPA:1,2017-07-02T06:30:00Z,30.6671,-87.9365,1.221,4.92,1111122 
DISL,ioos:station:DISL:MHPA:1,2017-07-02T07:00:00Z,30.6671,-87.9365,1.216,4.84,1111122 
DISL,ioos:station:DISL:MHPA:1,2017-07-02T07:30:00Z,30.6671,-87.9365,1.207,4.71,1111122 
DISL,ioos:station:DISL:MHPA:1,2017-07-02T08:00:00Z,30.6671,-87.9365,1.201,4.66,1111122 
DISL,ioos:station:DISL:MHPA:1,2017-07-02T08:30:00Z,30.6671,-87.9365,1.201,4.48,1111122 
DISL,ioos:station:DISL:MHPA:1,2017-07-02T09:00:00Z,30.6671,-87.9365,1.23,4.67,1111122 
DISL,ioos:station:DISL:MHPA:1,2017-07-02T09:30:00Z,30.6671,-87.9365,1.251,4.52,1111122 
DISL,ioos:station:DISL:MHPA:1,2017-07-02T10:00:00Z,30.6671,-87.9365,1.248,4.63,1111122 
DISL,ioos:station:DISL:MHPA:1,2017-07-02T10:30:00Z,30.6671,-87.9365,1.261,4.74,1111122 
DISL,ioos:station:DISL:MHPA:1,2017-07-02T11:00:00Z,30.6671,-87.9365,1.277,4.58,1111122 
DISL,ioos:station:DISL:MHPA:1,2017-07-02T11:30:00Z,30.6671,-87.9365,1.294,4.46,1111122 
DISL,ioos:station:DISL:MHPA:1,2017-07-02T12:00:00Z,30.6671,-87.9365,1.316,4.34,1111122 
DISL,ioos:station:DISL:MHPA:1,2017-07-02T12:30:00Z,30.6671,-87.9365,1.34,4.11,1111122 
DISL,ioos:station:DISL:MHPA:1,2017-07-02T13:00:00Z,30.6671,-87.9365,1.36,4.05,1111122 
DISL,ioos:station:DISL:MHPA:1,2017-07-02T13:30:00Z,30.6671,-87.9365,1.375,3.42,1111122 
DISL,ioos:station:DISL:MHPA:1,2017-07-02T14:00:00Z,30.6671,-87.9365,1.38,3.64,1111122 
DISL,ioos:station:DISL:MHPA:1,2017-07-02T14:30:00Z,30.6671,-87.9365,1.392,3.58,1111122 
DISL,ioos:station:DISL:MHPA:1,2017-07-02T15:00:00Z,30.6671,-87.9365,1.399,3.7,1111122 
DISL,ioos:station:DISL:MHPA:1,2017-07-02T15:30:00Z,30.6671,-87.9365,1.381,4.11,1111122 
DISL,ioos:station:DISL:MHPA:1,2017-07-02T16:00:00Z,30.6671,-87.9365,1.379,4.22,1111122 
DISL,ioos:station:DISL:MHPA:1,2017-07-02T16:30:00Z,30.6671,-87.9365,1.376,4.11,1111122 
DISL,ioos:station:DISL:MHPA:1,2017-07-02T17:00:00Z,30.6671,-87.9365,1.364,3.68,1111122 
DISL,ioos:station:DISL:MHPA:1,2017-07-02T17:30:00Z,30.6671,-87.9365,1.349,3.88,1111122 
DISL,ioos:station:DISL:MHPA:1,2017-07-02T18:00:00Z,30.6671,-87.9365,1.326,4.46,1111122 
DISL,ioos:station:DISL:MHPA:1,2017-07-02T18:30:00Z,30.6671,-87.9365,1.304,4.42,1111122 
DISL,ioos:station:DISL:MHPA:1,2017-07-02T19:00:00Z,30.6671,-87.9365,1.284,4.43,1111122 
DISL,ioos:station:DISL:MHPA:1,2017-07-02T19:30:00Z,30.6671,-87.9365,1.265,4.48,1111122 
DISL,ioos:station:DISL:MHPA:1,2017-07-02T20:00:00Z,30.6671,-87.9365,1.252,4.71,1111122 
DISL,ioos:station:DISL:MHPA:1,2017-07-02T20:30:00Z,30.6671,-87.9365,1.241,4.73,1111122 
DISL,ioos:station:DISL:MHPA:1,2017-07-02T21:00:00Z,30.6671,-87.9365,1.234,4.81,1111122 
DISL,ioos:station:DISL:MHPA:1,2017-07-02T21:30:00Z,30.6671,-87.9365,1.234,4.84,1111122 
DISL,ioos:station:DISL:MHPA:1,2017-07-02T22:00:00Z,30.6671,-87.9365,1.226,5.12,1111122 
DISL,ioos:station:DISL:MHPA:1,2017-07-02T22:30:00Z,30.6671,-87.9365,1.216,5.19,1111122 
DISL,ioos:station:DISL:MHPA:1,2017-07-02T23:00:00Z,30.6671,-87.9365,1.204,4.97,1111122 
DISL,ioos:station:DISL:MHPA:1,2017-07-02T23:30:00Z,30.6671,-87.9365,1.201,4.92,1111122 
DISL,ioos:station:DISL:MHPA:1,2017-07-03T00:00:00Z,30.6671,-87.9365,1.196,4.93,1111122 
DISL,ioos:station:DISL:MHPA:1,2017-07-03T00:30:00Z,30.6671,-87.9365,1.186,4.98,1111122 
DISL,ioos:station:DISL:MHPA:1,2017-07-03T01:00:00Z,30.6671,-87.9365,1.179,5.06,1111122 
DISL,ioos:station:DISL:MHPA:1,2017-07-03T01:30:00Z,30.6671,-87.9365,1.174,5.05,1111122 
DISL,ioos:station:DISL:MHPA:1,2017-07-03T02:00:00Z,30.6671,-87.9365,1.172,4.81,1111122 
DISL,ioos:station:DISL:MHPA:1,2017-07-03T02:30:00Z,30.6671,-87.9365,1.171,4.7,1111122 
DISL,ioos:station:DISL:MHPA:1,2017-07-03T03:00:00Z,30.6671,-87.9365,1.17,4.67,1111122 
DISL,ioos:station:DISL:MHPA:1,2017-07-03T03:30:00Z,30.6671,-87.9365,1.169,4.69,1111122 
DISL,ioos:station:DISL:MHPA:1,2017-07-03T04:00:00Z,30.6671,-87.9365,1.169,4.63,1111122 
DISL,ioos:station:DISL:MHPA:1,2017-07-03T04:30:00Z,30.6671,-87.9365,1.176,4.46,1111122 
DISL,ioos:station:DISL:MHPA:1,2017-07-03T05:00:00Z,30.6671,-87.9365,1.18,4.37,1111122 
DISL,ioos:station:DISL:MHPA:1,2017-07-03T05:30:00Z,30.6671,-87.9365,1.185,4.36,1111122 
DISL,ioos:station:DISL:MHPA:1,2017-07-03T06:00:00Z,30.6671,-87.9365,1.197,4.27,1111122 
DISL,ioos:station:DISL:MHPA:1,2017-07-03T06:30:00Z,30.6671,-87.9365,1.201,4.22,1111122 
DISL,ioos:station:DISL:MHPA:1,2017-07-03T07:00:00Z,30.6671,-87.9365,1.211,4.21,1111122 
DISL,ioos:station:DISL:MHPA:1,2017-07-03T07:30:00Z,30.6671,-87.9365,1.216,4.17,1111122 
DISL,ioos:station:DISL:MHPA:1,2017-07-03T08:00:00Z,30.6671,-87.9365,1.22,4.2,1111122 
DISL,ioos:station:DISL:MHPA:1,2017-07-03T08:30:00Z,30.6671,-87.9365,1.228,4.04,1111122 
DISL,ioos:station:DISL:MHPA:1,2017-07-03T09:00:00Z,30.6671,-87.9365,1.238,4.02,1111122 
DISL,ioos:station:DISL:MHPA:1,2017-07-03T09:30:00Z,30.6671,-87.9365,1.247,3.97,1111122 
DISL,ioos:station:DISL:MHPA:1,2017-07-03T10:00:00Z,30.6671,-87.9365,1.265,3.73,1111122 
DISL,ioos:station:DISL:MHPA:1,2017-07-03T10:30:00Z,30.6671,-87.9365,1.279,3.83,1111122 
DISL,ioos:station:DISL:MHPA:1,2017-07-03T11:00:00Z,30.6671,-87.9365,1.309,3.78,1111122 
DISL,ioos:station:DISL:MHPA:1,2017-07-03T11:30:00Z,30.6671,-87.9365,1.326,3.75,1111122 
DISL,ioos:station:DISL:MHPA:1,2017-07-03T12:00:00Z,30.6671,-87.9365,1.345,3.92,1111122 
DISL,ioos:station:DISL:MHPA:1,2017-07-03T12:30:00Z,30.6671,-87.9365,1.363,3.81,1111122 
DISL,ioos:station:DISL:MHPA:1,2017-07-03T13:00:00Z,30.6671,-87.9365,1.376,3.82,1111122 
DISL,ioos:station:DISL:MHPA:1,2017-07-03T13:30:00Z,30.6671,-87.9365,1.38,3.6,1111122 
DISL,ioos:station:DISL:MHPA:1,2017-07-03T14:00:00Z,30.6671,-87.9365,1.373,3.79,1111122 
DISL,ioos:station:DISL:MHPA:1,2017-07-03T14:30:00Z,30.6671,-87.9365,1.378,3.44,1111122 
DISL,ioos:station:DISL:MHPA:1,2017-07-03T15:00:00Z,30.6671,-87.9365,1.37,3.65,1111122 
DISL,ioos:station:DISL:MHPA:1,2017-07-03T15:30:00Z,30.6671,-87.9365,1.354,3.47,1111122 
DISL,ioos:station:DISL:MHPA:1,2017-07-03T16:00:00Z,30.6671,-87.9365,1.344,3.49,1111122 
DISL,ioos:station:DISL:MHPA:1,2017-07-03T16:30:00Z,30.6671,-87.9365,1.333,3.9,1111122 
DISL,ioos:station:DISL:MHPA:1,2017-07-03T17:00:00Z,30.6671,-87.9365,1.319,4.11,1111122 
DISL,ioos:station:DISL:MHPA:1,2017-07-03T17:30:00Z,30.6671,-87.9365,1.302,4.18,1111122 
DISL,ioos:station:DISL:MHPA:1,2017-07-03T18:00:00Z,30.6671,-87.9365,1.285,4.37,1111122 
DISL,ioos:station:DISL:MHPA:1,2017-07-03T18:30:00Z,30.6671,-87.9365,1.266,4.62,1111122 
DISL,ioos:station:DISL:MHPA:1,2017-07-03T19:00:00Z,30.6671,-87.9365,1.245,4.79,1111122 
DISL,ioos:station:DISL:MHPA:1,2017-07-03T19:30:00Z,30.6671,-87.9365,1.228,4.76,1111122 
DISL,ioos:station:DISL:MHPA:1,2017-07-03T20:00:00Z,30.6671,-87.9365,1.214,3.92,1111122 
DISL,ioos:station:DISL:MHPA:1,2017-07-03T20:30:00Z,30.6671,-87.9365,1.199,4.76,1111122 
DISL,ioos:station:DISL:MHPA:1,2017-07-03T21:00:00Z,30.6671,-87.9365,1.193,4.79,1111122 
DISL,ioos:station:DISL:MHPA:1,2017-07-03T21:30:00Z,30.6671,-87.9365,1.19,4.87,1111122 
DISL,ioos:station:DISL:MHPA:1,2017-07-03T22:00:00Z,30.6671,-87.9365,1.183,4.82,1111122 
DISL,ioos:station:DISL:MHPA:1,2017-07-03T22:30:00Z,30.6671,-87.9365,1.177,5.15,1111122 
DISL,ioos:station:DISL:MHPA:1,2017-07-03T23:00:00Z,30.6671,-87.9365,1.166,5.18,1111122 
DISL,ioos:station:DISL:MHPA:1,2017-07-03T23:30:00Z,30.6671,-87.9365,1.164,5.26,1111122 
DISL,ioos:station:DISL:MHPA:1,2017-07-04T00:00:00Z,30.6671,-87.9365,1.161,5.36,1111122 
DISL,ioos:station:DISL:MHPA:1,2017-07-04T00:30:00Z,30.6671,-87.9365,1.151,4.99,1111122 
DISL,ioos:station:DISL:MHPA:1,2017-07-04T01:00:00Z,30.6671,-87.9365,1.143,4.82,1111122 
DISL,ioos:station:DISL:MHPA:1,2017-07-04T01:30:00Z,30.6671,-87.9365,1.136,4.67,1111122 
DISL,ioos:station:DISL:MHPA:1,2017-07-04T02:00:00Z,30.6671,-87.9365,1.13,4.6,1111122 
DISL,ioos:station:DISL:MHPA:1,2017-07-04T02:30:00Z,30.6671,-87.9365,1.126,4.44,1111122 
DISL,ioos:station:DISL:MHPA:1,2017-07-04T03:00:00Z,30.6671,-87.9365,1.118,4.24,1111122 
DISL,ioos:station:DISL:MHPA:1,2017-07-04T03:30:00Z,30.6671,-87.9365,1.119,4.23,1111122 
DISL,ioos:station:DISL:MHPA:1,2017-07-04T04:00:00Z,30.6671,-87.9365,1.129,4.57,1111122 
DISL,ioos:station:DISL:MHPA:1,2017-07-04T04:30:00Z,30.6671,-87.9365,1.14,4.67,1111122 
DISL,ioos:station:DISL:MHPA:1,2017-07-04T05:00:00Z,30.6671,-87.9365,1.152,4.76,1111122 
DISL,ioos:station:DISL:MHPA:1,2017-07-04T05:30:00Z,30.6671,-87.9365,1.174,4.59,1111122 
DISL,ioos:station:DISL:MHPA:1,2017-07-04T06:00:00Z,30.6671,-87.9365,1.197,4.38,1111122 
DISL,ioos:station:DISL:MHPA:1,2017-07-04T06:30:00Z,30.6671,-87.9365,1.213,4.31,1111122 
DISL,ioos:station:DISL:MHPA:1,2017-07-04T07:00:00Z,30.6671,-87.9365,1.227,4.2,1111122 
DISL,ioos:station:DISL:MHPA:1,2017-07-04T07:30:00Z,30.6671,-87.9365,1.244,3.99,1111122 
DISL,ioos:station:DISL:MHPA:1,2017-07-04T08:00:00Z,30.6671,-87.9365,1.265,3.97,1111122 
DISL,ioos:station:DISL:MHPA:1,2017-07-04T08:30:00Z,30.6671,-87.9365,1.281,4.04,1111122 
DISL,ioos:station:DISL:MHPA:1,2017-07-04T09:00:00Z,30.6671,-87.9365,1.304,3.92,1111122 
DISL,ioos:station:DISL:MHPA:1,2017-07-04T09:30:00Z,30.6671,-87.9365,1.333,3.78,1111122 
DISL,ioos:station:DISL:MHPA:1,2017-07-04T10:00:00Z,30.6671,-87.9365,1.351,3.56,1111122 
DISL,ioos:station:DISL:MHPA:1,2017-07-04T10:30:00Z,30.6671,-87.9365,1.376,3.49,1111122 
DISL,ioos:station:DISL:MHPA:1,2017-07-04T11:00:00Z,30.6671,-87.9365,1.393,3.42,1111122 
DISL,ioos:station:DISL:MHPA:1,2017-07-04T11:30:00Z,30.6671,-87.9365,1.405,3.48,1111122 
DISL,ioos:station:DISL:MHPA:1,2017-07-04T12:00:00Z,30.6671,-87.9365,1.411,3.4,1111122 
DISL,ioos:station:DISL:MHPA:1,2017-07-04T12:30:00Z,30.6671,-87.9365,1.419,3.67,1111122 
DISL,ioos:station:DISL:MHPA:1,2017-07-04T13:00:00Z,30.6671,-87.9365,1.419,3.4,1111122 
DISL,ioos:station:DISL:MHPA:1,2017-07-04T13:30:00Z,30.6671,-87.9365,1.407,3.43,1111122 
DISL,ioos:station:DISL:MHPA:1,2017-07-04T14:00:00Z,30.6671,-87.9365,1.402,2.95,1111122 
DISL,ioos:station:DISL:MHPA:1,2017-07-04T14:30:00Z,30.6671,-87.9365,1.389,2.91,1111122 
DISL,ioos:station:DISL:MHPA:1,2017-07-04T15:00:00Z,30.6671,-87.9365,1.373,2.8,1111122 
DISL,ioos:station:DISL:MHPA:1,2017-07-04T15:30:00Z,30.6671,-87.9365,1.356,3.05,1111122 
DISL,ioos:station:DISL:MHPA:1,2017-07-04T16:00:00Z,30.6671,-87.9365,1.346,3.05,1111122 
DISL,ioos:station:DISL:MHPA:1,2017-07-04T16:30:00Z,30.6671,-87.9365,1.338,3.4,1111122 
DISL,ioos:station:DISL:MHPA:1,2017-07-04T17:00:00Z,30.6671,-87.9365,1.33,3.71,1111122 
DISL,ioos:station:DISL:MHPA:1,2017-07-04T17:30:00Z,30.6671,-87.9365,1.326,4.28,1111122 
DISL,ioos:station:DISL:MHPA:1,2017-07-04T18:00:00Z,30.6671,-87.9365,1.317,4.56,1111122 
DISL,ioos:station:DISL:MHPA:1,2017-07-04T18:30:00Z,30.6671,-87.9365,1.304,3.95,1111122 
DISL,ioos:station:DISL:MHPA:1,2017-07-04T19:00:00Z,30.6671,-87.9365,1.287,4.33,1111122 
DISL,ioos:station:DISL:MHPA:1,2017-07-04T19:30:00Z,30.6671,-87.9365,1.273,5.06,1111122 
DISL,ioos:station:DISL:MHPA:1,2017-07-04T20:00:00Z,30.6671,-87.9365,1.263,5.19,1111122 
DISL,ioos:station:DISL:MHPA:1,2017-07-04T20:30:00Z,30.6671,-87.9365,1.25,5.42,1111122 
DISL,ioos:station:DISL:MHPA:1,2017-07-04T21:00:00Z,30.6671,-87.9365,1.24,5.97,1111122 
DISL,ioos:station:DISL:MHPA:1,2017-07-04T21:30:00Z,30.6671,-87.9365,1.213,5.67,1111122 
DISL,ioos:station:DISL:MHPA:1,2017-07-04T22:00:00Z,30.6671,-87.9365,1.195,5.54,1111122 
DISL,ioos:station:DISL:MHPA:1,2017-07-04T22:30:00Z,30.6671,-87.9365,1.178,5.46,1111122 
DISL,ioos:station:DISL:MHPA:1,2017-07-04T23:00:00Z,30.6671,-87.9365,1.163,6.13,1111122 
DISL,ioos:station:DISL:MHPA:1,2017-07-04T23:30:00Z,30.6671,-87.9365,1.156,6.1,1111122 
DISL,ioos:station:DISL:MHPA:1,2017-07-05T00:00:00Z,30.6671,-87.9365,1.148,6.38,1111122 
DISL,ioos:station:DISL:MHPA:1,2017-07-05T00:30:00Z,30.6671,-87.9365,1.135,5.04,1111122 
DISL,ioos:station:DISL:MHPA:1,2017-07-05T01:00:00Z,30.6671,-87.9365,1.124,5.23,1111122 
DISL,ioos:station:DISL:MHPA:1,2017-07-05T01:30:00Z,30.6671,-87.9365,1.118,5.3,1111122 
DISL,ioos:station:DISL:MHPA:1,2017-07-05T02:00:00Z,30.6671,-87.9365,1.112,5.03,1111122 
DISL,ioos:station:DISL:MHPA:1,2017-07-05T02:30:00Z,30.6671,-87.9365,1.108,4.89,1111122 
DISL,ioos:station:DISL:MHPA:1,2017-07-05T03:00:00Z,30.6671,-87.9365,1.11,4.83,1111122 
DISL,ioos:station:DISL:MHPA:1,2017-07-05T03:30:00Z,30.6671,-87.9365,1.113,4.59,1111122 
DISL,ioos:station:DISL:MHPA:1,2017-07-05T04:00:00Z,30.6671,-87.9365,1.115,4.37,1111122 
DISL,ioos:station:DISL:MHPA:1,2017-07-05T04:30:00Z,30.6671,-87.9365,1.12,4.43,1111122 
DISL,ioos:station:DISL:MHPA:1,2017-07-05T05:00:00Z,30.6671,-87.9365,1.136,4.06,1111122 
DISL,ioos:station:DISL:MHPA:1,2017-07-05T05:30:00Z,30.6671,-87.9365,1.157,4.32,1111122 
DISL,ioos:station:DISL:MHPA:1,2017-07-05T06:00:00Z,30.6671,-87.9365,1.173,4.11,1111122 
DISL,ioos:station:DISL:MHPA:1,2017-07-05T06:30:00Z,30.6671,-87.9365,1.188,3.99,1111122 
DISL,ioos:station:DISL:MHPA:1,2017-07-05T07:00:00Z,30.6671,-87.9365,1.214,3.92,1111122 
DISL,ioos:station:DISL:MHPA:1,2017-07-05T07:30:00Z,30.6671,-87.9365,1.245,3.79,1111122 
DISL,ioos:station:DISL:MHPA:1,2017-07-05T08:00:00Z,30.6671,-87.9365,1.264,3.82,1111122 
DISL,ioos:station:DISL:MHPA:1,2017-07-05T08:30:00Z,30.6671,-87.9365,1.283,4.0,1111122 
DISL,ioos:station:DISL:MHPA:1,2017-07-05T09:00:00Z,30.6671,-87.9365,1.301,3.85,1111122 
DISL,ioos:station:DISL:MHPA:1,2017-07-05T09:30:00Z,30.6671,-87.9365,1.318,3.78,1111122 
DISL,ioos:station:DISL:MHPA:1,2017-07-05T10:00:00Z,30.6671,-87.9365,1.335,3.66,1111122 
DISL,ioos:station:DISL:MHPA:1,2017-07-05T10:30:00Z,30.6671,-87.9365,1.353,3.69,1111122 
DISL,ioos:station:DISL:MHPA:1,2017-07-05T11:00:00Z,30.6671,-87.9365,1.374,3.48,1111122 
DISL,ioos:station:DISL:MHPA:1,2017-07-05T11:30:00Z,30.6671,-87.9365,1.402,3.58,1111122 
DISL,ioos:station:DISL:MHPA:1,2017-07-05T12:00:00Z,30.6671,-87.9365,1.411,3.71,1111122 
DISL,ioos:station:DISL:MHPA:1,2017-07-05T12:30:00Z,30.6671,-87.9365,1.418,3.47,1111122 
DISL,ioos:station:DISL:MHPA:1,2017-07-05T13:00:00Z,30.6671,-87.9365,1.436,3.35,1111122 
DISL,ioos:station:DISL:MHPA:1,2017-07-05T13:30:00Z,30.6671,-87.9365,1.444,3.6,1111122 
DISL,ioos:station:DISL:MHPA:1,2017-07-05T14:00:00Z,30.6671,-87.9365,1.455,3.07,1111122 
DISL,ioos:station:DISL:MHPA:1,2017-07-05T14:30:00Z,30.6671,-87.9365,1.451,3.13,1111122 
DISL,ioos:station:DISL:MHPA:1,2017-07-05T15:00:00Z,30.6671,-87.9365,1.448,3.17,1111122 
DISL,ioos:station:DISL:MHPA:1,2017-07-05T15:30:00Z,30.6671,-87.9365,1.452,3.26,1111122 
DISL,ioos:station:DISL:MHPA:1,2017-07-05T16:00:00Z,30.6671,-87.9365,1.449,3.49,1111122 
DISL,ioos:station:DISL:MHPA:1,2017-07-05T16:30:00Z,30.6671,-87.9365,1.458,3.87,1111122 
DISL,ioos:station:DISL:MHPA:1,2017-07-05T17:00:00Z,30.6671,-87.9365,1.447,5.13,1111122 
DISL,ioos:station:DISL:MHPA:1,2017-07-05T17:30:00Z,30.6671,-87.9365,1.429,5.18,1111122 
DISL,ioos:station:DISL:MHPA:1,2017-07-05T18:00:00Z,30.6671,-87.9365,1.405,4.65,1111122 
DISL,ioos:station:DISL:MHPA:1,2017-07-05T18:30:00Z,30.6671,-87.9365,1.379,4.08,1111122 
DISL,ioos:station:DISL:MHPA:1,2017-07-05T19:00:00Z,30.6671,-87.9365,1.349,4.76,1111122 
DISL,ioos:station:DISL:MHPA:1,2017-07-05T19:30:00Z,30.6671,-87.9365,1.316,6.0,1111122 
DISL,ioos:station:DISL:MHPA:1,2017-07-05T20:00:00Z,30.6671,-87.9365,1.29,4.67,1111122 
DISL,ioos:station:DISL:MHPA:1,2017-07-05T20:30:00Z,30.6671,-87.9365,1.278,4.84,1111122 
DISL,ioos:station:DISL:MHPA:1,2017-07-05T21:00:00Z,30.6671,-87.9365,1.274,7.61,1111122 
DISL,ioos:station:DISL:MHPA:1,2017-07-05T21:30:00Z,30.6671,-87.9365,1.255,5.71,1111122 
DISL,ioos:station:DISL:MHPA:1,2017-07-05T22:00:00Z,30.6671,-87.9365,1.231,5.41,1111122 
DISL,ioos:station:DISL:MHPA:1,2017-07-05T22:30:00Z,30.6671,-87.9365,1.211,6.33,1111122 
DISL,ioos:station:DISL:MHPA:1,2017-07-05T23:00:00Z,30.6671,-87.9365,1.192,5.81,1111122 
DISL,ioos:station:DISL:MHPA:1,2017-07-05T23:30:00Z,30.6671,-87.9365,1.169,6.54,1111122 
DISL,ioos:station:DISL:MHPA:1,2017-07-06T00:00:00Z,30.6671,-87.9365,1.146,5.78,1111122 
DISL,ioos:station:DISL:MHPA:1,2017-07-06T00:30:00Z,30.6671,-87.9365,1.125,5.41,1111122 
DISL,ioos:station:DISL:MHPA:1,2017-07-06T01:00:00Z,30.6671,-87.9365,1.108,5.32,1111122 
DISL,ioos:station:DISL:MHPA:1,2017-07-06T01:30:00Z,30.6671,-87.9365,1.098,4.74,1111122 
DISL,ioos:station:DISL:MHPA:1,2017-07-06T02:00:00Z,30.6671,-87.9365,1.091,4.71,1111122 
DISL,ioos:station:DISL:MHPA:1,2017-07-06T02:30:00Z,30.6671,-87.9365,1.085,4.62,1111122 
DISL,ioos:station:DISL:MHPA:1,2017-07-06T03:00:00Z,30.6671,-87.9365,1.079,4.54,1111122 
DISL,ioos:station:DISL:MHPA:1,2017-07-06T03:30:00Z,30.6671,-87.9365,1.076,4.51,1111122 
DISL,ioos:station:DISL:MHPA:1,2017-07-06T04:00:00Z,30.6671,-87.9365,1.078,4.31,1111122 
DISL,ioos:station:DISL:MHPA:1,2017-07-06T04:30:00Z,30.6671,-87.9365,1.083,4.41,1111122 
DISL,ioos:station:DISL:MHPA:1,2017-07-06T05:00:00Z,30.6671,-87.9365,1.095,4.46,1111122 
DISL,ioos:station:DISL:MHPA:1,2017-07-06T05:30:00Z,30.6671,-87.9365,1.112,4.39,1111122 
DISL,ioos:station:DISL:MHPA:1,2017-07-06T06:00:00Z,30.6671,-87.9365,1.146,4.35,1111122 
DISL,ioos:station:DISL:MHPA:1,2017-07-06T06:30:00Z,30.6671,-87.9365,1.189,4.46,1111122 
DISL,ioos:station:DISL:MHPA:1,2017-07-06T07:00:00Z,30.6671,-87.9365,1.208,4.02,1111122 
DISL,ioos:station:DISL:MHPA:1,2017-07-06T07:30:00Z,30.6671,-87.9365,1.227,3.68,1111122 
DISL,ioos:station:DISL:MHPA:1,2017-07-06T08:00:00Z,30.6671,-87.9365,1.253,3.94,1111122 
DISL,ioos:station:DISL:MHPA:1,2017-07-06T08:30:00Z,30.6671,-87.9365,1.265,3.89,1111122 
DISL,ioos:station:DISL:MHPA:1,2017-07-06T09:00:00Z,30.6671,-87.9365,1.278,3.89,1111122 
DISL,ioos:station:DISL:MHPA:1,2017-07-06T09:30:00Z,30.6671,-87.9365,1.3,3.78,1111122 
DISL,ioos:station:DISL:MHPA:1,2017-07-06T10:00:00Z,30.6671,-87.9365,1.315,3.32,1111122 
DISL,ioos:station:DISL:MHPA:1,2017-07-06T10:30:00Z,30.6671,-87.9365,1.33,3.48,1111122 
DISL,ioos:station:DISL:MHPA:1,2017-07-06T11:00:00Z,30.6671,-87.9365,1.343,3.35,1111122 
DISL,ioos:station:DISL:MHPA:1,2017-07-06T11:30:00Z,30.6671,-87.9365,1.359,3.56,1111122 
DISL,ioos:station:DISL:MHPA:1,2017-07-06T12:00:00Z,30.6671,-87.9365,1.382,3.74,1111122 
DISL,ioos:station:DISL:MHPA:1,2017-07-06T12:30:00Z,30.6671,-87.9365,1.402,3.81,1111122 
DISL,ioos:station:DISL:MHPA:1,2017-07-06T13:00:00Z,30.6671,-87.9365,1.42,3.35,1111122 
DISL,ioos:station:DISL:MHPA:1,2017-07-06T13:30:00Z,30.6671,-87.9365,1.445,2.88,1111122 
DISL,ioos:station:DISL:MHPA:1,2017-07-06T14:00:00Z,30.6671,-87.9365,1.457,2.93,1111122 
DISL,ioos:station:DISL:MHPA:1,2017-07-06T14:30:00Z,30.6671,-87.9365,1.474,2.77,1111122 
DISL,ioos:station:DISL:MHPA:1,2017-07-06T15:00:00Z,30.6671,-87.9365,1.485,2.67,1111122 
DISL,ioos:station:DISL:MHPA:1,2017-07-06T15:30:00Z,30.6671,-87.9365,1.484,2.88,1111122 